Track STARLINK-1141 now! 10-day predictions STARLINK-1141 is classified as:
1 45051U 20006H 21021.48664745 -.00001207 00000-0 -62136-4 0 9997 2 45051 53.0586 55.7297 0001402 66.1099 294.0037 15.06394421 54129